Wind_Speed
18 18 22 18 18 16 15 19 19 19 19 19 17 18 19 19 21 22 21 18 18 15 15 14 17 19 15 13 17 18 18 19 20 17 17 20 21 23 18 15 16 19 17 18
21 20 20 25 21 20 21 22 24 27 26 28 24 22 26 26 27 27 27 26 24 23 20 20 18 17 23 23 17 20 21 23 21 22 22 21 24 28 29 28 28 24 25 23
24 26 25 26 27 24 26 26 28 29 31 34 32 32 33 33 32 31 25 27 26 25 28 27 22 19 22 24 24 25 23 25 25 24 26 25 29 32 30 31 33 32 33 32
26 26 27 28 27 28 28 32 31 33 30 32 35 36 34 33 32 31 36 34 35 32 31 34 36 32 29 25 30 29 28 26 28 29 35 35 31 36 32 30 33 35 33 28
29 30 30 29 31 33 37 37 37 36 35 32 36 39 36 34 34 39 43 44 45 42 39 39 40 40 37 33 32 29 35 34 34 37 35 39 43 35 37 32 35 35 37 35
33 34 35 35 35 37 37 37 37 39 39 40 40 42 47 48 50 52 50 49 50 49 48 44 46 45 40 39 37 40 44 52 47 41 41 47 44 44 35 37 40 41 39 42
33 35 36 37 38 39 40 41 43 45 46 48 49 52 55 58 58 57 55 55 59 60 60 57 51 51 49 50 47 51 56 54 52 51 52 45 40 41 39 36 37 41 38 29
38 38 40 41 43 45 45 46 46 49 51 53 56 57 60 60 62 66 67 69 66 63 62 63 62 61 61 60 58 64 59 51 48 47 53 42 42 45 42 35 39 43 32 31
38 39 40 41 42 43 43 43 42 40 40 40 43 47 52 52 52 53 55 57 59 61 62 62 65 69 70 70 71 71 67 62 47 51 45 47 45 44 38 37 47 52 51 45
39 37 35 33 31 31 31 33 34 37 39 42 47 51 52 57 57 58 58 60 60 62 66 68 68 67 66 64 62 60 58 58 51 52 55 55 54 44 46 43 45 51 50 56
25 25 26 28 30 32 34 36 39 41 43 44 45 50 52 55 57 60 60 61 61 62 63 66 66 66 67 67 66 65 62 55 45 50 55 59 58 47 57 54 54 54 62 57
22 24 27 30 33 35 36 37 39 42 44 47 47 50 52 53 56 56 58 57 57 57 59 63 66 67 65 65 66 63 59 56 53 55 58 61 59 60 61 62 66 65 62 63
25 28 31 32 32 34 37 39 41 42 44 46 46 50 52 56 59 59 60 59 57 56 57 60 64 67 67 68 67 64 58 56 56 69 68 62 70 65 72 69 76 77 72 72
29 30 30 32 35 39 41 41 44 47 48 49 52 53 56 59 60 61 61 60 58 58 57 57 59 60 65 70 69 67 60 58 59 60 71 78 74 73 75 76 80 80 79 75
26 28 32 35 37 40 45 44 44 46 47 49 48 50 52 58 61 63 64 60 57 56 57 57 51 51 54 58 62 62 62 62 59 62 65 76 83 88 81 78 83 84 87 90
29 31 34 38 38 42 45 45 47 48 49 49 52 56 59 59 63 65 64 59 58 54 53 50 42 41 40 42 45 49 50 52 55 60 64 67 72 79 87 88 88 85 86 87
33 35 37 40 42 44 49 49 51 52 54 55 55 60 64 64 68 69 68 61 58 50 45 41 34 27 29 31 35 37 38 43 47 52 54 57 62 68 73 80 80 83 84 85
38 40 42 43 45 47 53 54 56 57 60 59 61 64 68 68 70 71 70 64 51 40 42 38 29 26 24 29 26 28 29 42 42 44 45 48 53 56 60 65 73 79 85 89
42 44 46 47 48 51 56 56 58 59 61 63 65 69 72 73 76 68 69 62 43 37 35 26 16 25 21 22 25 28 29 32 32 34 37 39 41 44 47 49 51 55 59 63
44 47 49 51 52 53 56 57 60 61 60 65 70 73 77 79 78 75 59 50 34 31 20 15 18 15 19 17 22 25 26 23 24 27 26 27 29 30 33 38 41 44 49 54
47 48 51 52 54 56 58 60 62 61 63 68 73 78 79 85 82 73 50 36 27 26 11 13 15 13 17 14 15 16 16 21 24 26 28 29 30 32 36 40 45 50 55 58
51 52 54 54 57 59 58 61 60 62 67 72 79 82 84 86 78 60 41 30 28 26 12 10 17 16 19 21 21 19 19 20 23 24 27 32 36 39 43 44 47 50 49 50
53 53 53 56 59 59 61 62 61 64 69 75 81 86 88 81 66 45 25 30 28 21 17 14 18 20 22 20 18 19 21 21 23 27 30 33 35 37 39 38 37 40 42 45
58 56 57 60 62 61 63 62 65 69 74 80 85 91 85 74 45 22 22 24 26 23 13 17 19 18 21 19 20 21 24 26 32 32 31 31 31 30 30 29 34 37 34 35
61 58 60 64 64 64 67 66 69 74 76 83 86 91 78 58 24 14 18 21 16 19 17 19 18 21 22 19 20 22 23 22 20 20 21 22 22 25 31 33 36 38 39 38
62 62 63 64 65 67 67 68 70 73 77 81 84 81 71 36 21 12 10 16 18 20 25 26 24 21 22 21 21 22 23 23 24 26 26 28 30 35 38 40 41 40 40 44
Wind_Direction
233 232 230 245 248 249 253 259 268 269 265 267 265 271 275 284 289 288 287 285 296 281 282 288 284 293 300 297 294 283 285 282 273 286 289 302 298 298 299 292 306 314 319 324
244 239 245 244 256 262 276 273 281 283 282 277 274 275 281 285 292 290 286 284 284 287 273 277 275 293 289 288 283 291 277 280 281 270 299 301 295 289 292 296 304 298 296 297
249 252 254 252 256 263 273 282 288 292 289 287 287 284 285 285 287 290 282 295 292 289 277 269 279 274 283 280 287 290 280 280 281 272 288 294 295 292 287 296 300 298 297 289
252 256 257 260 266 264 271 281 282 285 286 287 284 284 285 286 284 284 291 294 300 292 284 271 270 273 280 280 288 275 267 264 272 283 286 290 290 294 289 287 292 289 294 290
256 259 256 260 261 267 274 280 281 284 285 281 277 278 278 277 282 286 287 288 289 289 290 276 269 273 274 279 280 271 266 275 275 284 273 292 288 284 284 285 289 287 293 292
261 265 269 271 273 277 281 283 284 288 288 289 287 286 290 286 288 289 288 285 286 288 286 280 271 270 268 274 270 276 278 289 283 271 277 284 280 282 280 284 282 285 291 294
263 266 269 273 275 277 279 282 284 285 285 283 282 281 282 285 286 284 282 281 283 284 283 282 270 265 266 267 268 275 280 284 282 267 275 282 273 282 277 286 282 283 292 282
270 271 273 275 277 279 279 279 280 281 282 283 283 282 282 280 278 276 275 282 283 282 280 278 273 267 266 266 267 276 277 275 278 268 278 271 279 278 277 280 281 275 284 282
272 275 276 276 276 276 277 279 280 282 284 286 287 288 289 288 287 285 285 284 282 281 280 275 273 270 269 268 269 273 273 274 261 260 265 271 275 269 271 265 265 283 265 268
274 276 280 283 286 288 290 291 294 296 295 293 294 293 292 293 291 289 286 283 280 279 278 277 274 272 271 269 268 268 267 265 263 253 254 257 266 260 260 255 257 256 265 267
282 284 287 289 292 296 301 303 302 301 301 300 299 297 297 295 293 293 290 286 283 280 278 275 273 271 268 267 266 266 264 260 256 249 250 248 252 246 244 248 245 254 246 255
288 293 295 297 300 301 299 298 299 298 297 297 299 301 299 297 300 301 299 296 289 283 280 276 274 272 270 269 265 260 258 260 243 242 242 246 246 248 251 253 246 254 258 255
292 293 295 297 296 294 296 299 301 302 304 305 304 305 308 309 310 307 304 303 298 291 283 276 273 272 270 268 267 264 258 250 247 237 241 239 241 243 245 247 251 252 258 258
293 296 297 297 299 300 300 303 307 312 316 318 315 316 315 314 312 311 309 307 302 296 291 283 275 273 271 267 265 264 261 255 249 245 239 237 241 243 244 249 249 254 259 261
292 299 302 301 303 305 309 314 316 316 315 316 317 318 318 319 316 311 311 311 307 303 297 289 283 277 271 268 267 266 262 257 253 250 247 241 241 244 250 249 249 253 257 260
289 296 299 301 305 307 308 309 312 313 313 313 316 318 321 319 320 318 314 313 311 306 294 283 280 278 276 272 269 266 261 257 254 253 250 248 248 246 247 253 256 258 262 265
288 291 297 302 305 309 308 312 313 313 314 318 318 319 319 319 322 323 318 315 316 307 294 282 282 285 281 274 267 262 259 264 263 260 257 254 252 251 250 253 257 260 262 265
291 295 299 304 306 308 308 313 312 315 315 319 319 319 321 319 322 325 318 315 315 296 288 282 281 278 279 273 267 247 248 264 265 260 261 259 260 262 262 261 261 262 263 266
294 295 299 303 305 307 308 311 311 313 313 316 318 318 319 321 321 322 316 313 306 288 285 280 256 273 257 261 263 254 257 260 258 257 260 261 262 263 263 263 264 265 265 268
294 295 296 298 301 304 308 309 311 313 315 317 318 317 318 320 321 316 311 304 279 274 276 272 271 275 235 249 267 266 268 264 254 252 255 258 258 261 264 266 267 268 269 272
293 295 298 301 303 305 308 311 312 314 315 317 319 319 319 318 317 311 301 281 244 256 252 282 287 284 256 251 263 274 276 245 256 261 263 263 261 262 265 267 269 272 274 276
297 299 302 304 304 306 311 312 312 314 316 318 319 320 318 318 314 307 289 240 240 253 237 288 276 286 277 265 268 270 265 262 270 265 269 266 266 266 274 277 277 278 281 286
296 298 303 304 304 309 313 312 314 315 318 319 320 319 321 319 316 300 269 220 228 242 260 282 295 280 273 267 269 271 268 280 284 286 284 281 280 279 281 283 289 294 293 289
294 298 302 303 303 310 311 311 314 318 320 321 322 325 325 322 314 284 211 215 235 256 257 273 292 282 278 277 276 271 279 287 287 287 286 284 285 285 283 289 298 299 309 312
294 298 298 301 304 309 310 311 314 317 320 323 326 328 323 324 287 210 209 236 251 256 251 279 287 275 273 287 287 284 285 289 294 299 294 291 290 293 292 294 296 297 297 302
295 294 296 300 305 307 309 311 313 316 320 323 327 328 323 307 231 170 237 246 254 261 272 265 265 279 272 280 283 286 288 289 290 294 291 287 286 291 291 289 294 299 299 299
Height
11022 11021 11023 11023 11023 11024 11026 11026 11026 11026 11024 11023 11024 11023 11022 11020 11019 11019 11020 11020 11021 11019 11018 11017 11016 11015 11012 11013 11013 11012 11012 11011 11009 11008 11007 11006 11005 11003 11002 11001 11000 10999 10997 10995
11019 11019 11020 11020 11021 11021 11023 11024 11024 11024 11023 11022 11020 11019 11018 11016 11015 11014 11014 11015 11014 11015 11014 11013 11012 11011 11010 11007 11007 11007 11006 11005 11004 11003 11001 11000 10998 10997 10996 10995 10994 10992 10992 10990
11015 11016 11016 11017 11018 11019 11020 11021 11020 11019 11018 11016 11015 11013 11012 11010 11009 11008 11007 11007 11008 11008 11008 11007 11006 11006 11005 11003 11001 11001 11000 10999 10997 10996 10995 10994 10992 10990 10989 10988 10987 10987 10984 10982
11012 11012 11013 11013 11015 11016 11016 11015 11014 11012 11010 11009 11007 11006 11003 11001 11000 11001 11001 11000 11000 11000 11001 10999 10998 10998 10998 10996 10995 10994 10993 10991 10991 10989 10989 10987 10986 10984 10982 10980 10979 10977 10976 10975
11007 11007 11008 11009 11009 11009 11008 11007 11007 11005 11003 11003 10999 10998 10998 10996 10995 10994 10992 10991 10989 10989 10990 10990 10989 10989 10988 10987 10986 10985 10986 10984 10983 10983 10980 10980 10978 10976 10975 10973 10969 10968 10968 10968
11001 11002 11002 11002 11002 11001 11001 10999 10998 10996 10993 10991 10990 10986 10984 10985 10985 10982 10980 10978 10975 10975 10976 10977 10977 10978 10977 10977 10977 10975 10975 10974 10973 10972 10972 10971 10970 10969 10969 10966 10963 10961 10960 10958
10995 10996 10996 10996 10995 10994 10993 10992 10989 10987 10985 10983 10981 10978 10974 10970 10970 10970 10968 10965 10963 10961 10960 10961 10963 10963 10965 10964 10964 10962 10961 10959 10960 10962 10960 10960 10961 10959 10960 10958 10955 10954 10952 10948
10987 10989 10989 10988 10987 10985 10984 10983 10983 10979 10976 10972 10968 10965 10960 10960 10958 10955 10952 10951 10946 10944 10943 10942 10944 10947 10948 10949 10952 10950 10949 10950 10946 10943 10945 10948 10950 10949 10949 10948 10947 10946 10943 10941
10980 10979 10979 10978 10978 10976 10975 10973 10972 10971 10966 10963 10958 10951 10945 10945 10945 10942 10938 10935 10932 10928 10925 10924 10925 10926 10929 10932 10934 10932 10933 10936 10941 10938 10936 10935 10939 10939 10938 10933 10931 10934 10932 10930
10971 10971 10970 10968 10967 10966 10965 10963 10962 10960 10958 10954 10948 10941 10937 10929 10927 10924 10923 10918 10916 10911 10906 10905 10905 10906 10907 10910 10914 10916 10916 10920 10927 10928 10926 10926 10927 10927 10925 10920 10916 10918 10914 10913
10962 10962 10962 10961 10959 10958 10956 10955 10953 10949 10945 10942 10938 10929 10924 10918 10911 10904 10901 10898 10896 10892 10889 10884 10884 10886 10887 10888 10893 10897 10901 10906 10910 10910 10909 10908 10910 10909 10908 10907 10908 10904 10902 10903
10956 10955 10953 10953 10952 10950 10948 10947 10943 10939 10936 10931 10927 10917 10912 10905 10897 10890 10881 10877 10875 10872 10868 10865 10861 10861 10865 10869 10872 10877 10884 10891 10894 10892 10890 10891 10892 10893 10893 10893 10891 10889 10886 10885
10950 10949 10947 10946 10944 10942 10939 10937 10932 10929 10923 10917 10914 10905 10898 10892 10882 10874 10865 10858 10852 10849 10846 10843 10839 10838 10840 10842 10846 10853 10862 10868 10867 10869 10872 10875 10874 10874 10875 10875 10872 10871 10870 10868
10943 10941 10939 10938 10935 10931 10928 10926 10921 10915 10909 10904 10897 10892 10883 10875 10867 10858 10849 10841 10832 10826 10821 10820 10818 10818 10818 10818 10822 10828 10841 10843 10844 10849 10851 10856 10855 10854 10854 10856 10855 10853 10853 10852
10937 10934 10930 10928 10925 10920 10914 10912 10908 10904 10899 10894 10888 10881 10873 10864 10854 10843 10834 10825 10816 10807 10800 10797 10796 10795 10797 10799 10800 10804 10811 10815 10824 10824 10827 10833 10833 10832 10835 10836 10837 10838 10834 10833
10929 10927 10924 10919 10918 10912 10906 10903 10899 10893 10887 10884 10877 10867 10859 10850 10840 10829 10819 10809 10799 10792 10784 10779 10779 10781 10782 10783 10783 10783 10787 10790 10794 10799 10805 10809 10812 10814 10816 10815 10816 10817 10816 10814
10921 10919 10916 10911 10908 10902 10895 10892 10886 10880 10873 10868 10861 10852 10843 10833 10825 10814 10802 10793 10785 10775 10770 10768 10768 10769 10770 10771 10770 10770 10771 10773 10775 10778 10781 10785 10789 10791 10795 10798 10798 10796 10795 10794
10911 10908 10905 10902 10898 10892 10883 10881 10873 10867 10857 10853 10845 10836 10828 10819 10811 10802 10787 10778 10772 10765 10761 10759 10760 10760 10761 10761 10761 10762 10764 10763 10763 10764 10766 10770 10774 10776 10778 10780 10780 10779 10779 10777
10902 10899 10895 10891 10888 10883 10873 10870 10863 10857 10846 10839 10830 10821 10812 10804 10796 10791 10773 10765 10759 10755 10754 10753 10754 10751 10750 10752 10754 10756 10756 10756 10756 10757 10758 10760 10761 10762 10763 10763 10763 10762 10760 10759
10893 10889 10886 10883 10879 10873 10865 10859 10851 10844 10835 10824 10814 10804 10795 10785 10777 10768 10760 10752 10750 10747 10746 10744 10744 10743 10742 10744 10746 10747 10748 10748 10749 10751 10751 10752 10752 10752 10751 10751 10749 10748 10746 10743
10883 10880 10875 10871 10865 10860 10853 10847 10838 10830 10822 10811 10799 10788 10777 10765 10756 10745 10741 10738 10741 10740 10738 10737 10737 10736 10735 10737 10739 10740 10741 10743 10744 10744 10744 10744 10743 10742 10741 10740 10738 10735 10732 10728
10869 10866 10863 10858 10850 10845 10841 10833 10826 10817 10806 10795 10782 10770 10757 10744 10731 10722 10719 10723 10730 10732 10732 10732 10731 10729 10730 10731 10732 10733 10734 10735 10735 10734 10734 10733 10732 10730 10728 10725 10723 10720 10715 10710
10856 10854 10851 10845 10837 10834 10828 10818 10811 10804 10794 10781 10768 10752 10737 10721 10709 10701 10703 10711 10719 10722 10725 10725 10725 10724 10724 10724 10724 10725 10725 10724 10724 10724 10722 10720 10718 10717 10715 10712 10708 10705 10701 10695
10842 10843 10838 10832 10824 10822 10813 10806 10798 10788 10778 10765 10750 10732 10716 10703 10693 10691 10697 10704 10711 10714 10717 10719 10720 10719 10718 10716 10715 10715 10715 10715 10714 10712 10710 10708 10706 10705 10704 10701 10698 10694 10689 10684
10830 10830 10823 10817 10811 10809 10799 10792 10784 10774 10764 10751 10736 10718 10702 10691 10687 10690 10696 10700 10704 10708 10711 10712 10713 10713 10712 10709 10708 10709 10708 10707 10705 10703 10701 10699 10698 10697 10695 10692 10689 10685 10680 10675
10820 10813 10808 10803 10798 10793 10787 10779 10772 10761 10751 10740 10726 10707 10691 10686 10685 10688 10693 10696 10699 10702 10704 10706 10706 10706 10704 10703 10702 10701 10700 10699 10697 10695 10693 10691 10689 10687 10684 10682 10677 10673 10668 10662